South Bend, IN

12:07 AM EST on December 11, 2016 (GMT -0500)
South Bend Regional

Weather History for KSBN - January, 2015

Change the Weather History Date:

Thursday, January 29, 2015

  Actual Average Record
Temperature  
Mean Temperature 34 °F 25 °F  
Max Temperature 37 °F 32 °F 59 °F (2013)
Min Temperature 31 °F 18 °F -12 °F (1899)
Degree Days  
Heating Degree Days 31 40  
Month to date heating degree days 1230 1180  
Since 1 July heating degree days 3650 3571  
Cooling Degree Days 0 0  
Month to date cooling degree days 0 0  
Year to date cooling degree days 0 0  
Moisture  
Dew Point 27 °F    
Average Humidity 71    
Maximum Humidity 82    
Minimum Humidity 59    
Precipitation  
Precipitation 0.02 in 0.06 in 1.94 in (2013)
Month to date precipitation 1.85 2.16  
Year to date precipitation 1.85 2.16  
Snow  
Snow 0.10 in 0.60 in 8.20 in (1978)
Month to date snowfall 21.4 19.2  
Since 1 July snowfall 40.9 41.7  
Snow Depth 1.00 in    
Sea Level Pressure  
Sea Level Pressure 29.91 in    
Wind  
Wind Speed 15 mph (WNW)    
Max Wind Speed 26 mph    
Max Gust Speed 37 mph    
Visibility 8 miles    
Events Rain , Snow    
T = Trace of Precipitation, MM = Missing Value Source: NWS Daily Summary

Daily Weather History Graph

Daily Weather History Graph

Search for Another Location

Airport or City:

Trip Planner

Search our weather history database for the weather conditions in past years. The results will help you decide how hot, cold, wet, or windy it might be!

Date:

Astronomy

Jan. 29, 2015 Rise Set
Actual Time 8:00 AM EST 5:56 PM EST
Civil Twilight 7:30 AM EST 6:26 PM EST
Nautical Twilight 6:57 AM EST 6:59 PM EST
Astronomical Twilight 6:24 AM EST 7:32 PM EST
Moon 1:44 PM EST (1/29) 3:32 AM EST (1/29)
Length of Visible Light 10h 55m
Length of Day
9h 56m
Waxing Gibbous, 75% of the Moon is Illuminated
Jan 29
Waxing Gibbous
Feb 3
Full
Feb 11
Last Quarter
Feb 18
New
Feb 25
First Quarter

Hourly Weather History & Observations

Time (EST) Temp. Windchill Dew Point Humidity Pressure Visibility Wind Dir Wind Speed Gust Speed Precip Events Conditions
12:54 AM 32.0 °F 22.1 °F 21.9 °F 66% 29.96 in 10.0 mi SSE 13.8 mph - 0.00 in   Overcast
1:54 AM 34.0 °F 24.2 °F 21.9 °F 61% 29.91 in 10.0 mi SSE 15.0 mph - 0.00 in Rain Light Rain
2:10 AM 33.1 °F 23.4 °F 24.1 °F 70% 29.87 in 8.0 mi South 13.8 mph 23.0 mph 0.01 in Rain Light Freezing Rain
2:38 AM 34.0 °F 24.2 °F 25.0 °F 70% 29.85 in 10.0 mi SSE 15.0 mph - 0.02 in   Overcast
2:54 AM 34.0 °F 23.8 °F 24.1 °F 67% 29.86 in 10.0 mi SSE 16.1 mph - 0.02 in   Overcast
3:54 AM 33.8 °F 25.8 °F 24.8 °F 70% 29.81 in 10.0 mi SSE 10.4 mph - N/A   Clear
4:54 AM 35.1 °F 27.9 °F 24.1 °F 64% 29.79 in 10.0 mi SSE 9.2 mph - N/A   Overcast
5:54 AM 36.0 °F 29.0 °F 25.0 °F 64% 29.76 in 10.0 mi SSE 9.2 mph - N/A   Overcast
6:54 AM 36.0 °F 29.6 °F 26.1 °F 67% 29.74 in 10.0 mi SSE 8.1 mph - N/A   Overcast
7:54 AM 37.0 °F 33.3 °F 26.1 °F 65% 29.75 in 10.0 mi SSW 4.6 mph - N/A   Overcast
8:44 AM 36.0 °F 33.3 °F 28.0 °F 73% 29.72 in 10.0 mi SSW 3.5 mph - N/A   Overcast
8:54 AM 37.0 °F 34.5 °F 28.0 °F 70% 29.75 in 10.0 mi WSW 3.5 mph - N/A   Overcast
9:54 AM 36.0 °F 30.3 °F 28.0 °F 73% 29.76 in 10.0 mi West 6.9 mph - N/A   Overcast
10:54 AM 37.0 °F 27.4 °F 30.0 °F 76% 29.79 in 10.0 mi NW 17.3 mph 25.3 mph 0.00 in   Overcast
11:35 AM 35.1 °F 23.8 °F 30.0 °F 82% 29.79 in 7.0 mi NW 20.7 mph 29.9 mph 0.00 in   Overcast
11:54 AM 35.1 °F 24.1 °F 30.0 °F 82% 29.83 in 7.0 mi NNW 19.6 mph 26.5 mph 0.00 in   Overcast
12:23 PM 35.1 °F 24.1 °F 30.0 °F 82% 29.83 in 6.0 mi NNW 19.6 mph 31.1 mph N/A   Haze
12:54 PM 35.1 °F 24.5 °F 30.0 °F 82% 29.86 in 4.0 mi NNW 18.4 mph 24.2 mph N/A   Haze
1:07 PM 34.0 °F 21.5 °F 30.0 °F 85% 29.84 in 2.0 mi NNW 24.2 mph 32.2 mph N/A   Overcast
1:44 PM 34.0 °F 22.1 °F 28.9 °F 82% 29.86 in 4.0 mi NNW 21.9 mph 29.9 mph 0.00 in Snow Light Snow
1:54 PM 34.0 °F 22.7 °F 28.9 °F 82% 29.89 in 4.0 mi NW 19.6 mph 28.8 mph 0.00 in   Haze
2:44 PM 34.0 °F 22.7 °F 28.0 °F 79% 29.89 in 7.0 mi NNW 19.6 mph 29.9 mph N/A   Overcast
2:54 PM 34.0 °F 21.8 °F 28.0 °F 79% 29.92 in 7.0 mi NNW 23.0 mph 31.1 mph N/A   Overcast
3:54 PM 33.1 °F 22.2 °F 28.9 °F 85% 29.97 in 2.5 mi NNW 17.3 mph 27.6 mph N/A   Overcast
4:02 PM 33.1 °F 22.2 °F 28.9 °F 85% 29.95 in 2.5 mi NNW 17.3 mph - N/A   Overcast
4:20 PM 33.1 °F 22.2 °F 28.9 °F 85% 29.96 in 4.0 mi NNW 17.3 mph - N/A   Overcast
4:54 PM 33.1 °F 22.6 °F 28.9 °F 85% 30.02 in 3.0 mi NW 16.1 mph 26.5 mph N/A   Overcast
5:28 PM 34.0 °F 24.6 °F 28.9 °F 82% 30.02 in 5.0 mi NNW 13.8 mph - N/A   Haze
5:54 PM 34.0 °F 24.2 °F 28.9 °F 82% 30.06 in 6.0 mi NNW 15.0 mph - N/A   Haze
6:54 PM 34.0 °F 24.6 °F 27.0 °F 75% 30.11 in 10.0 mi NNW 13.8 mph - N/A   Overcast
7:54 PM 35.1 °F 24.5 °F 26.1 °F 70% 30.14 in 10.0 mi NW 18.4 mph 23.0 mph N/A   Overcast
8:54 PM 35.1 °F 24.8 °F 25.0 °F 67% 30.17 in 10.0 mi NW 17.3 mph 23.0 mph N/A   Overcast
9:54 PM 35.1 °F 25.2 °F 23.0 °F 61% 30.17 in 10.0 mi NW 16.1 mph 26.5 mph N/A   Overcast
10:54 PM 34.0 °F 22.7 °F 24.1 °F 67% 30.20 in 9.0 mi NNW 19.6 mph 28.8 mph 0.00 in   Overcast